Temperature
11 11 11 11 11 10 10 10 10 9 9 9 9 9 8 8 7 7 6 6 6 5 5 5 5 5 5 5 5 5 5 6 6 6 6 6 6 6
10 10 10 10 10 10 10 10 9 9 9 9 8 8 8 7 7 6 6 5 5 5 4 4 4 4 4 4 5 5 5 5 5 5 5 5 6 6
10 10 10 10 9 9 9 9 9 9 8 8 8 7 7 6 6 5 5 5 4 4 4 3 3 3 4 4 4 4 5 5 5 5 5 5 5 6
9 9 9 9 9 9 9 8 8 8 8 7 7 7 6 5 5 5 4 4 3 3 3 3 3 3 3 3 4 4 4 4 4 4 4 5 5 5
8 8 8 8 8 8 8 8 8 7 7 7 7 6 5 5 4 4 4 3 3 2 2 2 2 2 3 3 3 3 3 4 4 4 4 4 4 5
7 7 7 8 8 7 7 7 7 7 7 6 6 5 5 4 4 3 3 3 2 2 2 2 2 2 2 2 3 3 3 3 3 3 3 4 4 4
7 7 7 7 7 7 7 7 6 6 6 6 5 5 5 4 4 3 3 2 2 2 2 2 2 2 2 2 2 2 2 3 3 3 3 3 3 4
6 6 6 6 6 6 6 6 6 6 6 5 5 5 5 4 3 3 2 2 1 2 1 1 1 2 1 1 2 2 2 2 2 2 2 2 3 3
5 5 5 5 6 5 5 5 5 5 5 5 5 5 5 4 3 2 2 2 2 1 1 1 1 1 1 1 1 2 2 2 2 2 2 2 2 2
4 4 4 5 5 5 4 4 4 4 4 4 4 4 3 3 3 2 2 1 1 1 1 1 1 1 1 1 1 1 1 1 1 1 1 2 2 2
4 4 4 4 4 4 4 4 4 4 4 3 3 3 3 2 2 2 1 1 1 1 0 0 1 1 1 1 1 1 1 1 1 1 1 1 1 1
3 3 3 3 3 3 3 3 3 3 3 3 3 2 2 2 2 1 1 1 1 0 0 0 1 1 1 1 1 1 1 1 1 1 1 1 1 1
2 2 2 3 3 3 2 3 3 2 2 2 2 2 1 1 1 1 0 0 0 0 0 0 0 0 0 0 1 1 0 0 1 0 0 0 1 1
2 2 2 2 2 2 2 2 2 1 1 1 1 1 1 1 0 0 -0 -0 -0 -0 -0 -0 -0 0 0 0 0 0 0 0 0 0 0 0 0 0
1 1 1 1 1 1 1 1 1 1 1 0 0 0 0 -0 -1 -1 -1 -1 -1 -1 -1 -1 -1 -1 -1 -1 -0 0 0 0 0 0 -0 -0 -0 -0
-0 0 0 0 0 0 0 0 0 0 0 -0 -0 -0 -1 -1 -1 -1 -1 -1 -1 -1 -1 -1 -1 -1 -1 -1 -1 -1 -1 -0 -0 -0 -0 -0 -0 -0
-1 -1 -1 -1 -0 -0 -0 -0 -0 -1 -1 -1 -1 -1 -1 -2 -2 -2 -2 -2 -2 -1 -1 -1 -2 -2 -1 -1 -1 -1 -1 -1 -1 -1 -1 -1 -1 -1
-2 -2 -1 -1 -1 -1 -1 -1 -1 -1 -1 -1 -2 -2 -2 -2 -2 -2 -2 -2 -2 -2 -2 -2 -2 -2 -2 -2 -2 -1 -1 -1 -1 -1 -1 -1 -1 -1
-2 -2 -2 -2 -1 -1 -1 -1 -1 -1 -2 -2 -2 -2 -2 -3 -3 -3 -3 -3 -3 -3 -3 -3 -3 -2 -2 -2 -2 -2 -1 -2 -2 -2 -2 -1 -1 -2
-3 -2 -2 -2 -2 -2 -2 -2 -2 -2 -2 -2 -2 -3 -3 -3 -3 -3 -3 -3 -3 -3 -3 -3 -3 -3 -2 -2 -3 -2 -2 -2 -2 -2 -2 -2 -2 -2
-3 -3 -3 -2 -2 -2 -2 -2 -2 -2 -2 -3 -3 -3 -3 -3 -4 -3 -3 -3 -3 -3 -3 -3 -3 -3 -4 -4 -3 -3 -3 -3 -3 -3 -3 -3 -2 -2
-3 -3 -3 -3 -3 -3 -3 -3 -3 -3 -3 -3 -3 -3 -3 -3 -3 -4 -4 -4 -3 -3 -3 -4 -4 -4 -4 -4 -3 -3 -3 -3 -3 -3 -3 -3 -3 -3
-4 -4 -4 -4 -3 -3 -3 -3 -3 -3 -3 -3 -3 -3 -3 -3 -4 -4 -4 -4 -4 -4 -4 -4 -4 -4 -4 -4 -4 -4 -4 -4 -4 -4 -4 -4 -4 -4
Wind_Speed
7 7 6 5 5 4 4 5 5 5 6 5 4 4 6 6 7 6 5 5 4 4 3 3 3 3 4 5 6 6 7 8 9 9 8 9 9 9
6 7 7 5 4 4 4 4 4 5 5 4 4 3 5 6 7 6 6 5 5 5 4 3 2 2 3 4 5 6 7 8 8 9 9 9 9 9
7 8 8 6 6 5 4 4 4 4 4 2 2 2 4 5 5 5 5 4 4 5 4 3 2 1 2 3 5 5 6 7 8 9 10 10 9 9
9 8 8 7 7 6 5 6 5 5 5 5 3 3 3 5 5 4 4 4 4 5 5 3 2 1 0 2 3 5 6 6 7 8 9 10 10 9
9 10 9 8 8 6 7 6 5 5 4 5 4 2 2 3 3 2 2 2 3 5 5 4 3 2 1 0 2 4 5 6 6 7 9 9 10 9
8 8 9 9 10 9 8 8 6 6 5 5 4 3 3 3 4 4 3 2 2 3 4 4 3 2 2 1 1 2 4 5 5 6 7 8 9 9
6 7 7 9 11 10 8 8 8 7 6 6 5 4 4 4 5 4 4 2 2 2 2 2 2 1 1 1 0 1 2 3 4 5 6 8 8 9
7 6 7 9 11 14 14 13 13 10 9 7 6 7 7 6 5 5 4 3 3 2 3 2 2 2 3 3 2 1 1 2 3 4 5 7 8 9
7 6 6 7 10 8 11 13 13 15 13 9 8 8 8 8 8 6 5 5 4 4 3 2 2 2 4 5 4 2 1 1 1 3 4 6 7 8
7 7 8 8 8 9 8 7 7 7 8 7 7 7 7 8 9 8 7 4 2 1 3 3 2 2 2 3 4 4 3 1 1 2 3 4 6 7
7 7 8 8 12 13 9 8 6 4 6 8 8 9 10 12 11 7 6 5 3 3 3 3 3 2 1 1 4 5 4 3 1 0 2 3 4 6
6 7 10 11 13 15 11 10 10 7 6 5 5 6 6 9 13 9 8 6 3 3 4 4 3 3 2 1 1 2 2 3 2 1 1 2 3 4
6 6 7 13 15 16 14 10 12 9 8 7 5 4 4 3 4 5 5 6 5 3 5 5 3 3 3 1 1 1 2 1 1 1 1 1 1 2
6 6 7 12 14 15 13 12 14 11 7 6 6 5 5 4 3 4 5 4 3 4 7 6 4 4 4 2 2 1 1 2 2 1 1 1 1 1
6 8 9 11 12 11 13 14 12 8 8 7 7 6 4 5 5 4 5 6 6 5 6 5 4 4 3 3 3 2 1 1 2 2 1 1 1 1
6 7 9 10 8 8 9 9 8 8 8 7 7 5 5 5 5 4 4 4 3 1 2 3 5 5 3 3 3 3 3 2 2 2 1 1 2 3
5 3 3 3 5 5 5 6 6 7 8 7 7 6 6 6 5 4 4 4 3 4 3 2 3 3 3 4 3 4 3 3 3 3 2 1 2 4
5 4 5 5 6 6 7 7 7 8 8 7 7 8 8 8 7 5 4 4 4 4 4 4 4 2 1 3 7 5 4 3 3 3 3 2 3 3
5 4 5 5 6 6 7 7 7 7 8 8 8 8 8 8 7 7 6 5 5 5 4 5 5 5 4 3 3 9 5 4 3 3 3 4 3 2
4 4 4 4 5 5 6 6 6 7 7 8 8 8 8 8 8 8 8 7 6 5 5 5 6 6 6 4 3 3 9 5 4 4 3 2 3 5
4 4 4 4 4 4 5 5 6 7 8 8 8 9 9 8 8 8 8 11 8 6 8 8 7 9 4 3 1 2 3 9 7 4 4 3 2 1
4 4 4 4 4 4 4 4 5 6 8 8 8 8 8 8 9 9 9 8 8 7 6 4 5 6 5 5 5 3 2 2 7 9 8 6 4 4
4 4 4 3 3 3 4 4 5 6 6 7 7 8 8 8 8 8 8 8 7 7 6 6 6 5 6 6 5 4 4 3 3 3 5 11 12 10
Wind_Direction
212 211 213 212 205 198 187 181 178 200 220 204 193 185 171 167 170 164 163 164 148 137 121 100 76 46 25 10 0 357 354 351 346 346 347 349 345 342
213 211 214 206 199 195 190 187 187 189 211 194 191 175 172 169 174 169 170 165 165 162 153 138 95 52 24 12 3 359 356 353 356 356 357 355 350 351
213 211 215 200 198 196 190 183 188 179 198 176 151 155 162 168 165 169 170 165 173 184 177 166 148 84 26 18 8 5 4 6 4 1 2 359 358 360
214 210 213 201 198 194 192 192 191 181 179 180 173 168 173 176 165 170 175 175 185 194 192 184 181 168 81 28 11 10 13 14 12 10 9 6 5 6
217 213 211 198 205 200 197 195 189 181 170 169 174 167 157 160 152 168 168 174 198 202 203 203 195 187 178 53 15 12 13 14 17 18 16 14 13 12
226 219 213 206 208 201 200 196 184 179 170 169 170 166 161 156 157 171 183 191 203 204 206 202 198 190 203 197 45 17 13 16 20 20 21 20 21 23
233 226 219 212 210 204 202 196 186 184 178 181 180 172 176 171 184 175 181 171 214 199 181 201 180 169 247 208 176 355 11 21 25 25 26 26 27 30
236 232 224 217 214 213 211 202 192 188 189 188 191 193 193 184 169 168 159 161 216 204 167 206 171 196 226 225 231 246 23 38 34 31 27 27 31 36
235 231 231 224 214 211 212 208 206 205 197 186 192 197 185 182 170 170 175 177 195 178 151 196 186 210 229 224 221 218 194 94 41 33 34 36 37 39
241 231 229 226 213 202 198 198 201 202 199 195 196 192 185 178 177 175 170 147 105 139 154 182 192 206 208 224 225 212 205 189 49 31 37 42 46 47
250 237 230 227 222 209 197 193 193 200 199 191 190 190 188 182 167 142 146 150 169 199 183 169 174 170 192 238 240 221 211 210 217 16 37 43 48 53
256 243 233 231 226 213 200 191 197 193 171 166 167 173 172 179 178 169 167 164 159 197 192 164 157 147 194 257 243 235 220 228 237 253 25 41 54 70
254 251 241 233 228 218 208 200 202 180 166 161 156 151 143 148 157 164 166 164 166 193 174 152 149 154 166 196 244 222 208 220 245 288 334 19 49 88
254 251 246 235 228 222 215 203 195 178 160 161 167 175 172 169 159 148 150 146 148 169 166 151 151 162 154 166 215 212 212 221 205 212 287 318 345 360
263 256 250 240 229 223 213 200 190 175 168 178 186 188 177 160 142 126 108 104 88 96 139 156 146 147 151 169 179 178 195 224 198 186 197 221 263 306
272 262 254 241 222 212 205 199 189 178 179 187 184 169 151 151 156 150 146 141 131 112 78 122 153 148 157 173 174 190 194 201 192 188 188 234 249 238
275 261 235 222 211 201 193 190 183 179 186 179 175 169 168 168 168 157 150 151 165 168 165 133 121 130 152 165 189 209 201 209 206 183 172 240 255 240
268 249 237 223 217 210 204 198 194 192 188 181 180 178 177 177 172 166 161 169 180 180 173 164 149 122 72 253 213 204 199 206 197 184 176 201 261 252
264 254 242 228 222 213 209 204 200 193 184 182 183 181 177 176 174 178 180 180 188 187 178 167 166 164 175 220 223 203 188 182 172 180 192 198 225 248
268 261 250 234 225 219 212 207 198 186 185 186 185 182 179 178 181 185 187 188 188 186 182 183 190 191 192 190 195 205 200 182 175 181 187 198 243 269
278 272 259 242 233 223 215 206 197 190 187 187 188 186 183 182 187 189 188 194 191 189 198 205 207 191 157 124 160 220 207 204 195 178 168 166 202 246
278 272 261 244 233 223 213 206 199 192 188 190 189 187 186 186 189 188 188 190 195 198 200 185 160 165 171 192 207 195 186 190 211 215 209 196 177 197
278 273 264 247 235 223 211 204 200 198 192 189 187 186 186 188 188 188 189 190 190 190 184 176 171 178 190 197 204 204 195 187 184 205 234 235 235 239
Height
1491 1492 1492 1494 1495 1495 1496 1497 1498 1496 1496 1497 1498 1498 1499 1500 1501 1500 1501 1501 1501 1500 1500 1500 1499 1498 1497 1496 1495 1494 1493 1492 1491 1490 1490 1490 1490 1490
1484 1485 1485 1486 1488 1488 1489 1490 1491 1491 1491 1491 1492 1493 1494 1494 1495 1496 1496 1496 1496 1496 1496 1496 1495 1495 1494 1493 1492 1490 1490 1489 1489 1488 1487 1487 1487 1487
1477 1478 1478 1479 1480 1481 1482 1482 1484 1485 1485 1485 1486 1488 1489 1489 1490 1491 1491 1491 1491 1492 1492 1492 1492 1491 1490 1489 1489 1488 1487 1486 1486 1486 1484 1484 1484 1484
1469 1470 1471 1472 1472 1473 1474 1475 1477 1478 1479 1480 1481 1481 1483 1484 1485 1486 1486 1487 1487 1488 1488 1488 1488 1488 1487 1486 1486 1485 1484 1484 1484 1483 1483 1482 1482 1483
1462 1462 1463 1464 1465 1466 1467 1468 1469 1471 1473 1474 1474 1476 1477 1478 1479 1481 1481 1482 1483 1484 1484 1484 1484 1484 1484 1483 1483 1482 1482 1482 1481 1481 1481 1481 1481 1481
1455 1455 1456 1457 1458 1459 1461 1461 1463 1464 1466 1467 1468 1470 1471 1472 1474 1475 1476 1478 1479 1480 1481 1481 1481 1481 1480 1480 1480 1480 1479 1479 1479 1479 1479 1479 1479 1480
1448 1448 1449 1450 1451 1453 1454 1455 1456 1457 1459 1460 1462 1463 1465 1466 1468 1470 1472 1473 1474 1475 1476 1477 1477 1477 1478 1478 1477 1477 1477 1477 1477 1477 1477 1478 1478 1478
1441 1442 1442 1443 1445 1446 1447 1448 1450 1451 1452 1453 1455 1456 1458 1460 1463 1465 1466 1468 1469 1471 1472 1473 1473 1474 1475 1475 1475 1475 1475 1475 1475 1475 1476 1476 1477 1477
1435 1435 1436 1436 1438 1439 1440 1441 1442 1444 1446 1447 1449 1451 1453 1455 1457 1459 1461 1462 1464 1467 1468 1468 1470 1470 1472 1472 1472 1473 1473 1473 1474 1474 1474 1475 1476 1476
1429 1429 1429 1430 1431 1432 1433 1434 1436 1437 1439 1441 1443 1446 1448 1450 1452 1455 1456 1458 1460 1462 1464 1464 1465 1467 1468 1469 1469 1470 1471 1471 1472 1473 1473 1474 1474 1475
1423 1423 1423 1424 1425 1426 1427 1428 1429 1431 1433 1435 1438 1440 1442 1444 1447 1449 1451 1453 1455 1457 1459 1460 1461 1463 1464 1465 1466 1468 1469 1469 1470 1471 1472 1472 1473 1473
1416 1416 1417 1417 1418 1419 1420 1422 1423 1425 1427 1429 1432 1434 1436 1439 1441 1444 1447 1449 1450 1453 1454 1456 1457 1460 1461 1462 1463 1464 1466 1467 1468 1469 1470 1471 1471 1472
1410 1410 1410 1411 1412 1413 1414 1416 1417 1419 1421 1424 1426 1429 1431 1434 1436 1439 1442 1444 1446 1448 1451 1452 1454 1456 1458 1459 1460 1461 1463 1464 1465 1467 1468 1469 1470 1471
1405 1404 1404 1405 1405 1407 1408 1410 1412 1413 1415 1418 1421 1423 1426 1429 1432 1434 1437 1439 1442 1444 1447 1449 1450 1453 1454 1456 1457 1458 1460 1461 1463 1464 1465 1466 1467 1469
1399 1399 1399 1399 1399 1401 1402 1404 1406 1407 1410 1412 1415 1418 1421 1424 1427 1429 1431 1434 1437 1440 1442 1444 1447 1449 1451 1453 1454 1456 1457 1459 1460 1461 1462 1464 1465 1466
1393 1393 1393 1393 1394 1395 1397 1399 1400 1402 1404 1407 1410 1413 1416 1418 1421 1424 1427 1430 1433 1435 1438 1440 1442 1445 1447 1449 1451 1453 1455 1456 1457 1458 1460 1461 1462 1464
1388 1388 1387 1388 1388 1389 1391 1393 1395 1397 1399 1402 1405 1408 1411 1413 1416 1419 1422 1425 1428 1431 1433 1436 1438 1440 1443 1445 1447 1449 1451 1453 1454 1455 1456 1458 1459 1460
1384 1383 1382 1383 1383 1385 1386 1388 1390 1392 1394 1397 1400 1402 1405 1408 1412 1415 1418 1421 1424 1426 1429 1431 1434 1436 1439 1441 1444 1445 1447 1449 1450 1451 1453 1454 1456 1457
1379 1378 1378 1378 1379 1380 1381 1383 1385 1387 1389 1392 1394 1397 1400 1403 1407 1410 1413 1416 1419 1422 1424 1427 1430 1432 1434 1436 1439 1441 1443 1444 1446 1447 1449 1450 1452 1453
1374 1374 1374 1374 1374 1375 1376 1378 1380 1382 1384 1387 1389 1392 1395 1398 1401 1404 1408 1411 1414 1417 1420 1422 1425 1428 1430 1433 1435 1437 1439 1440 1442 1443 1445 1446 1448 1449
1370 1370 1370 1370 1370 1371 1372 1373 1375 1377 1379 1382 1384 1387 1390 1393 1396 1400 1403 1406 1409 1412 1415 1418 1421 1425 1426 1428 1430 1432 1435 1436 1438 1439 1441 1442 1443 1445
1367 1366 1366 1366 1366 1366 1367 1369 1370 1372 1375 1377 1380 1383 1386 1389 1392 1395 1398 1401 1404 1408 1411 1414 1417 1419 1421 1423 1425 1428 1430 1432 1433 1435 1436 1438 1439 1440
1363 1362 1362 1361 1362 1362 1363 1364 1366 1368 1370 1373 1375 1378 1381 1384 1387 1391 1394 1397 1400 1403 1406 1409 1412 1414 1416 1419 1421 1423 1425 1427 1428 1430 1432 1433 1434 1435